I3JUK-11 Weather Reports


Display with metric or nautical units.
time (UTC)temp
F
wind
direction
speed
MPH
gust
MPH
rain 1hr
in
rain 24hr
in
rain mn
in
humidity
%
barometer
mb
20260504215756 67 22 2.0 3.0 0.00 0.00 0.00 10 1013.9
20260504214855 67 22 2.0 3.0 0.00 0.00 0.00 10 1013.8
20260504213956 67 22 2.0 3.0 0.00 0.00 0.00 10 1013.9
20260504213055 67 22 2.0 3.0 0.00 0.00 0.00 10 1013.8
20260504212155 67 22 2.0 3.0 0.00 0.00 0.00 10 1013.9
20260504211508 67 22 2.0 3.0 0.00 0.00 0.00 10 1014.0
20260504210606 67 22 2.0 3.0 0.00 0.00 0.00 10 1014.0
20260504205455 67 22 2.0 3.0 0.00 0.00 0.00 10 1014.0
20260504204556 67 22 2.0 3.0 0.00 0.00 0.00 10 1013.9
20260504203655 67 22 2.0 3.0 0.00 0.00 0.00 10 1013.9
20260504202756 67 22 2.0 3.0 0.00 0.00 0.00 10 1013.8
20260504201855 67 22 2.0 3.0 0.00 0.00 0.00 67 1014.0
20260504200955 67 22 2.0 3.0 0.00 0.00 0.00 67 1013.9
20260504200055 67 22 2.0 3.0 0.00 0.00 0.00 67 1013.8
20260504195156 67 22 2.0 3.0 0.00 0.00 0.00 67 1013.8
20260504194256 67 22 2.0 3.0 0.00 0.00 0.00 67 1013.7
20260504193355 67 22 2.0 3.0 0.00 0.00 0.00 67 1013.8
20260504192455 67 22 2.0 3.0 0.00 0.00 0.00 67 1013.6
20260504191809 67 22 2.0 3.0 0.00 0.00 0.00 67 1013.6
20260504190656 67 22 2.0 3.0 0.00 0.00 0.00 67 1013.6
20260504185756 67 22 2.0 3.0 0.00 0.00 0.00 67 1013.5
20260504184856 67 22 2.0 3.0 0.00 0.00 0.00 67 1013.5
20260504184208 67 22 2.0 3.0 0.00 0.00 0.00 67 1013.4
20260504183055 67 22 2.0 3.0 0.00 0.00 0.00 67 1013.5
20260504182155 67 22 2.0 3.0 0.00 0.00 0.00 67 1013.4
20260504181255 67 22 2.0 3.0 0.00 0.00 0.00 67 1013.3
20260504180355 67 22 2.0 3.0 0.00 0.00 0.00 67 1013.3
20260504175455 67 22 2.0 3.0 0.00 0.00 0.00 67 1013.2
20260504174555 67 22 2.0 3.0 0.00 0.00 0.00 67 1013.1
20260504173657 67 22 2.0 3.0 0.00 0.00 0.00 67 1013.1
20260504172756 67 22 2.0 3.0 0.00 0.00 0.00 67 1013.0
20260504171856 67 22 2.0 3.0 0.00 0.00 0.00 67 1012.7
20260504170956 67 22 2.0 3.0 0.00 0.00 0.00 67 1012.8
20260504150355 67 22 2.0 3.0 0.00 0.00 0.00 67 1013.1
20260504140955 67 22 2.0 3.0 0.00 0.00 0.00 67 1013.6
20260504130655 67 22 2.0 3.0 0.00 0.00 0.00 67 1014.0
20260504081855 67 22 2.0 3.0 0.00 0.00 0.00 67 1015.8
20260504080955 67 22 2.0 3.0 0.00 0.00 0.00 67 1015.9
20260504045156 58 22 2.0 3.0 0.00 0.00 0.00 82 1014.9
20260504044255 58 22 2.0 3.0 0.00 0.00 0.00 83 1014.9
20260504043356 57 22 2.0 2.0 0.00 0.00 0.00 84 1014.7
20260504042706 57 22 2.0 2.0 0.00 0.00 0.00 86 1014.7
20260504041555 57 22 1.0 2.0 0.00 0.00 0.00 86 1014.6
20260504040656 57 22 1.0 2.0 0.00 0.00 0.00 86 1014.7
20260504035755 57 22 1.0 2.0 0.00 0.00 0.00 85 1014.6
20260504035105 56 22 1.0 2.0 0.00 0.00 0.00 85 1014.5
20260504033956 56 0 0.0 2.0 0.00 0.00 0.00 85 1014.6
20260504033055 57 22 1.0 2.0 0.00 0.00 0.00 84 1014.6
20260504032156 57 0 0.0 2.0 0.00 0.00 0.00 84 1014.7
20260504031255 57 22 1.0 2.0 0.00 0.00 0.00 84 1014.6
20260504030355 58 22 1.0 2.0 0.00 0.00 0.00 84 1014.6
20260504025704 58 22 1.0 2.0 0.00 0.00 0.00 84 1014.7
20260504024555 58 22 1.0 2.0 0.00 0.00 0.00 83 1014.7
20260504023655 58 22 1.0 2.0 0.00 0.00 0.00 83 1014.8
20260504023006 58 22 1.0 2.0 0.00 0.00 0.00 83 1014.9
20260504021856 58 0 0.0 1.0 0.00 0.00 0.00 83 1014.8
20260504020955 58 0 0.0 2.0 0.00 0.00 0.00 83 1014.8
20260504020055 58 24 2.0 2.0 0.00 0.00 0.00 83 1014.7
20260504015156 58 44 1.0 2.0 0.00 0.00 0.00 83 1014.7
20260504014255 58 45 1.0 2.0 0.00 0.00 0.00 83 1014.8
20260504013356 58 0 0.0 0.0 0.00 0.00 0.00 83 1014.7
20260504012456 58 0 0.0 0.0 0.00 0.00 0.00 83 1014.8
20260504011805 58 0 0.0 0.0 0.00 0.00 0.00 83 1014.7
20260504010656 58 0 0.0 0.0 0.00 0.00 0.00 83 1014.7
20260504005755 58 0 0.0 0.0 0.00 0.00 0.00 82 1014.8
20260504004855 58 0 0.0 1.0 0.00 0.00 0.00 82 1014.9
20260504003957 58 0 0.0 0.0 0.00 0.00 0.00 82 1014.9
20260504003307 58 0 0.0 0.0 0.00 0.00 0.00 82 1014.9
20260504002155 58 0 0.0 1.0 0.00 0.00 0.00 82 1015.0
20260504001506 58 0 0.0 1.0 0.00 0.00 0.00 83 1015.0
20260504000356 58 0 0.0 1.0 0.00 0.00 0.00 82 1015.1
20260503235706 58 0 0.0 2.0 0.00 0.00 0.00 82 1015.0
20260503234555 58 0 0.0 1.0 0.00 0.00 0.00 82 1015.1
20260503233656 58 0 0.0 1.0 0.00 0.00 0.00 81 1015.2
20260503232755 58 0 0.0 1.0 0.00 0.00 0.00 81 1015.1
20260503231855 59 0 0.0 2.0 0.00 0.00 0.00 81 1015.3
20260503230955 59 0 0.0 1.0 0.00 0.00 0.00 80 1015.4
20260503230056 59 0 0.0 2.0 0.00 0.00 0.00 80 1015.4
20260503225155 59 22 1.0 2.0 0.00 0.00 0.00 80 1015.4
20260503224505 59 22 1.0 2.0 0.00 0.00 0.00 80 1015.3
20260503223355 59 22 1.0 2.0 0.00 0.00 0.00 80 1015.3
20260503222455 59 22 1.0 2.0 0.00 0.00 0.00 79 1015.3
20260503221556 59 0 0.0 2.0 0.00 0.00 0.00 79 1015.3
20260503220655 60 43 1.0 2.0 0.00 0.00 0.00 79 1015.3